Temperature
8 7 7 6 6 5 4 4 3 2 3 4 3 3 2 1 1 1 1 0 0 -0 -0 -1 -1 -1 -2 -2 -2 -2 -2 -2 -2 -2 -2 -2 -2 -1
7 7 6 6 5 5 4 4 3 2 2 2 2 2 1 1 0 0 -0 -0 -0 -1 -1 -1 -2 -2 -2 -3 -3 -3 -3 -3 -3 -3 -3 -2 -2 -2
7 7 6 6 5 5 4 3 3 2 1 2 2 2 1 1 0 -0 -1 -1 -1 -1 -2 -2 -2 -3 -3 -3 -3 -3 -3 -3 -3 -3 -3 -3 -3 -3
7 6 6 5 5 4 4 3 3 2 1 1 1 1 1 -0 -1 -1 -1 -1 -2 -2 -2 -3 -3 -3 -3 -4 -4 -4 -4 -4 -4 -4 -4 -4 -3 -3
6 6 5 5 4 4 3 3 2 2 1 0 0 0 -0 -1 -1 -1 -2 -2 -2 -3 -3 -3 -3 -4 -4 -4 -4 -4 -4 -4 -4 -4 -4 -4 -4 -4
6 5 5 4 4 3 3 2 2 1 1 0 -0 -0 -1 -1 -2 -2 -3 -3 -3 -3 -3 -4 -4 -4 -4 -4 -4 -4 -4 -4 -5 -5 -5 -4 -4 -4
5 5 4 4 3 3 2 2 1 1 -0 -1 -1 -1 -2 -2 -3 -3 -3 -4 -4 -4 -4 -4 -4 -4 -4 -4 -4 -5 -5 -5 -5 -5 -5 -5 -5 -4
5 4 4 3 3 2 2 1 0 -0 -1 -1 -2 -2 -2 -3 -3 -4 -4 -5 -5 -5 -5 -5 -5 -5 -5 -5 -5 -5 -5 -5 -6 -5 -5 -5 -5 -5
4 3 3 3 2 2 1 1 0 -0 -1 -2 -3 -3 -3 -3 -4 -4 -5 -5 -5 -5 -6 -5 -5 -5 -5 -6 -5 -6 -6 -6 -6 -6 -6 -6 -5 -5
3 3 2 2 1 1 0 -0 -0 -1 -2 -2 -3 -3 -4 -4 -4 -5 -5 -5 -6 -6 -6 -6 -6 -6 -6 -6 -6 -6 -6 -7 -7 -6 -6 -6 -6 -6
2 2 1 1 1 -0 -1 -1 -1 -2 -2 -3 -3 -4 -4 -5 -5 -5 -6 -6 -6 -6 -6 -7 -7 -7 -7 -6 -6 -6 -7 -7 -7 -7 -7 -7 -6 -6
2 1 1 0 -1 -1 -2 -2 -2 -2 -3 -4 -4 -4 -5 -5 -6 -6 -6 -7 -7 -7 -7 -7 -8 -8 -8 -7 -7 -7 -7 -7 -7 -7 -7 -7 -6 -6
1 0 -0 -1 -2 -2 -3 -3 -3 -4 -4 -5 -5 -5 -5 -6 -6 -6 -7 -7 -7 -8 -8 -8 -8 -8 -9 -9 -7 -7 -7 -7 -7 -7 -7 -7 -7 -7
-0 -1 -1 -2 -2 -3 -3 -4 -4 -5 -5 -6 -6 -6 -6 -6 -7 -7 -7 -7 -8 -8 -8 -8 -9 -9 -9 -9 -9 -7 -7 -7 -7 -7 -7 -7 -7 -7
-1 -2 -3 -3 -3 -4 -5 -5 -5 -6 -6 -6 -7 -7 -7 -7 -7 -8 -8 -8 -8 -8 -8 -8 -9 -9 -9 -9 -9 -8 -8 -7 -7 -7 -7 -7 -7 -7
-2 -3 -3 -4 -4 -5 -6 -6 -6 -7 -7 -7 -7 -7 -8 -8 -8 -8 -8 -8 -8 -8 -8 -9 -9 -9 -9 -9 -9 -8 -8 -8 -8 -8 -7 -7 -7 -7
-3 -4 -4 -5 -5 -6 -6 -7 -7 -7 -7 -8 -8 -8 -8 -8 -8 -9 -9 -9 -9 -9 -9 -8 -9 -9 -9 -9 -9 -8 -8 -8 -8 -8 -8 -7 -7 -7
-5 -5 -5 -6 -6 -7 -7 -8 -8 -8 -8 -8 -8 -9 -9 -9 -9 -9 -9 -9 -10 -9 -9 -9 -9 -9 -9 -8 -9 -9 -8 -8 -8 -8 -8 -8 -7 -7
-6 -6 -6 -7 -8 -8 -8 -8 -9 -9 -9 -9 -9 -9 -9 -9 -9 -10 -10 -10 -10 -10 -10 -10 -10 -10 -10 -10 -9 -9 -9 -9 -8 -8 -8 -8 -7 -7
-6 -7 -7 -8 -8 -9 -9 -9 -9 -10 -10 -10 -10 -10 -10 -10 -10 -10 -10 -10 -10 -10 -10 -10 -10 -10 -10 -10 -10 -9 -9 -9 -9 -8 -8 -8 -7 -7
-7 -8 -8 -9 -9 -10 -10 -10 -10 -10 -10 -10 -10 -10 -10 -10 -10 -10 -11 -11 -11 -11 -10 -10 -10 -10 -10 -10 -10 -9 -9 -9 -9 -9 -8 -8 -8 -7
-8 -9 -9 -10 -10 -10 -10 -11 -11 -11 -11 -11 -11 -11 -11 -11 -11 -11 -11 -11 -11 -11 -11 -11 -10 -10 -10 -10 -10 -10 -9 -9 -9 -9 -8 -8 -8 -8
-9 -9 -10 -10 -10 -11 -11 -11 -11 -11 -11 -11 -11 -11 -11 -11 -11 -11 -11 -11 -11 -11 -11 -11 -11 -10 -10 -10 -10 -10 -9 -9 -9 -8 -8 -8 -8 -8
Wind_Speed
6 6 4 4 4 4 4 4 4 3 4 4 3 3 5 7 9 9 10 14 17 18 19 20 20 21 21 22 22 22 23 24 24 24 25 26 26 27
5 6 5 4 4 4 4 4 5 5 5 4 5 5 6 9 11 11 12 16 17 18 20 20 21 22 22 22 22 23 24 24 25 25 26 26 27 27
5 6 6 5 4 4 4 4 5 5 7 6 5 4 4 6 9 11 13 13 14 18 20 21 22 22 22 23 23 24 24 25 25 26 26 27 27 27
7 7 7 5 5 5 4 5 5 6 6 9 6 4 6 6 6 7 10 12 13 17 20 22 22 23 23 24 24 25 25 25 26 26 26 27 27 27
8 8 7 6 6 5 5 6 5 6 6 6 7 5 5 5 6 6 7 8 12 16 19 20 21 23 24 24 25 25 25 26 26 27 27 27 27 27
7 7 7 7 8 7 6 7 6 6 6 6 7 6 5 5 4 6 7 5 7 11 16 18 21 23 23 24 25 26 26 26 26 26 26 26 26 26
6 6 7 9 10 8 6 6 6 6 5 6 7 6 5 5 5 5 7 7 7 7 7 9 11 11 15 20 23 24 25 26 25 25 25 25 25 25
7 6 7 8 10 13 14 13 10 7 6 6 6 7 8 7 6 6 7 8 7 4 4 7 6 8 9 13 20 24 24 24 24 24 24 24 24 24
7 6 6 6 9 6 11 14 13 16 15 9 8 8 7 7 7 8 8 8 9 5 5 8 6 8 9 15 22 23 23 22 22 22 22 22 22 22
7 7 7 7 7 7 7 7 8 9 11 8 8 9 8 8 8 8 9 8 7 5 4 7 6 6 8 11 19 20 19 20 20 21 21 21 21 21
6 6 7 7 12 13 8 7 8 8 12 16 17 16 18 19 15 7 5 7 8 5 4 4 5 6 6 7 11 15 18 20 21 21 21 20 20 19
5 6 10 10 13 14 8 7 9 9 8 8 10 12 11 13 16 8 5 7 7 5 3 3 4 4 5 4 4 8 12 17 20 20 20 20 19 11
5 5 6 12 14 15 12 7 12 12 7 6 6 6 6 6 6 6 6 6 7 6 4 3 4 4 5 6 5 5 6 6 9 13 17 17 17 13
5 5 6 12 13 14 11 13 17 15 5 5 5 6 6 6 6 6 7 7 8 8 8 6 5 5 6 8 7 5 5 6 6 7 7 12 14 15
5 8 10 12 11 9 12 15 13 7 5 6 7 7 6 6 5 4 5 5 6 9 10 8 6 6 6 7 7 6 7 6 5 5 6 7 6 6
5 7 10 10 8 9 10 8 6 6 6 6 6 6 5 4 4 3 3 3 4 5 6 8 7 6 5 7 8 9 8 5 5 7 7 6 6 5
4 2 2 3 4 4 5 5 5 5 6 5 6 6 5 4 4 3 3 2 3 4 5 4 5 6 7 7 7 8 7 6 6 6 6 6 6 6
4 2 3 4 5 5 5 5 5 6 6 6 5 5 5 5 4 3 2 3 4 5 5 4 4 4 4 4 7 6 5 5 5 6 4 5 6 6
3 3 4 4 5 5 5 5 5 5 5 5 5 5 5 4 4 3 3 3 4 4 5 4 3 2 4 5 5 4 4 5 5 5 4 4 6 7
3 4 4 5 5 5 5 6 6 5 5 5 5 5 4 4 3 3 3 4 4 4 4 3 3 3 4 4 4 5 7 5 4 5 5 5 5 8
4 4 5 5 5 5 5 5 5 5 5 4 4 5 4 3 4 4 4 7 5 3 4 5 5 7 4 2 4 4 5 7 7 5 5 5 5 4
5 5 5 5 5 5 5 5 5 5 5 5 5 4 4 3 4 4 4 4 4 4 4 5 5 3 1 2 4 5 5 5 7 10 8 6 3 3
5 5 5 5 5 5 5 5 6 5 5 5 4 4 4 4 4 4 4 4 4 4 4 4 3 2 2 3 4 4 5 5 4 5 5 8 8 9
Wind_Direction
180 183 187 198 191 191 183 175 183 243 274 267 266 261 270 298 298 302 305 308 311 312 311 312 311 311 310 310 309 308 307 307 306 304 302 300 299 297
183 186 199 204 201 197 196 196 191 202 245 253 246 254 279 285 293 301 296 304 306 308 309 309 309 309 308 307 307 306 306 306 305 304 303 301 300 298
191 197 211 205 206 209 203 204 208 201 242 266 251 259 262 266 283 287 289 287 288 302 306 306 306 306 306 306 305 305 306 305 305 304 303 302 300 298
201 203 217 212 217 219 214 221 225 217 229 265 272 261 254 257 261 271 284 286 283 295 302 303 304 304 304 304 305 304 304 304 303 303 302 300 298 297
201 206 217 213 229 231 228 232 237 241 230 252 272 261 259 257 266 272 274 278 284 292 299 300 301 303 303 304 305 305 304 304 303 301 300 298 297 297
208 211 215 215 227 232 236 238 240 247 248 254 268 269 262 258 258 273 284 270 276 287 290 292 297 300 301 303 305 304 304 303 301 300 299 298 298 297
219 222 225 229 235 239 242 239 235 244 251 258 268 274 272 272 266 265 282 284 274 268 272 280 288 286 290 296 301 301 301 301 302 303 303 302 300 299
225 234 239 243 253 261 267 269 262 256 253 254 265 268 273 265 265 269 278 290 291 257 260 279 275 278 282 285 294 300 302 303 303 303 304 305 304 302
223 233 245 249 260 258 271 278 278 277 275 272 266 265 271 265 268 274 269 271 278 276 277 284 273 278 281 290 298 301 303 304 305 307 308 309 308 307
227 230 238 251 255 261 255 261 262 267 274 273 259 262 260 261 255 265 273 276 269 265 257 278 280 274 286 286 293 298 304 310 313 315 313 312 310 309
241 238 239 247 266 276 274 268 273 272 280 281 280 283 287 292 294 291 286 290 293 283 238 251 276 287 282 274 282 297 308 314 315 316 315 315 313 314
250 249 254 260 271 278 271 266 275 276 272 279 282 287 288 288 293 285 271 279 286 288 247 247 276 300 297 268 269 288 299 306 312 314 314 314 315 316
248 253 255 272 279 283 284 271 277 287 275 270 273 274 274 270 267 262 250 250 265 271 261 261 270 268 270 293 288 277 281 291 303 305 310 314 317 319
246 249 257 278 285 289 291 290 295 300 294 286 282 281 277 271 266 261 255 249 247 256 267 261 259 268 284 293 295 292 295 288 290 294 300 314 318 320
256 272 281 288 294 294 295 299 304 300 290 283 280 277 268 264 261 266 269 268 269 270 271 263 255 267 271 282 291 293 305 302 291 296 304 305 302 307
281 287 295 300 301 299 300 301 293 279 281 275 275 273 271 264 259 255 265 275 287 292 280 274 265 259 267 271 278 288 292 290 303 307 306 301 297 296
288 282 284 288 284 283 286 283 279 283 287 273 273 277 277 270 269 257 255 263 269 285 299 301 289 271 257 264 276 279 288 292 291 301 308 307 300 300
303 287 279 276 277 281 285 286 282 281 279 277 276 276 278 274 275 271 260 263 274 280 283 290 309 322 322 291 246 267 286 293 301 303 300 304 305 309
296 280 276 275 275 277 279 280 281 281 280 281 281 277 275 271 270 272 273 279 281 281 284 286 293 296 308 309 298 277 287 303 307 309 303 298 298 304
279 274 275 277 277 278 278 279 279 281 279 278 275 272 268 267 265 267 269 271 281 287 293 291 277 265 262 281 289 294 301 294 300 305 304 303 294 298
277 276 276 277 276 275 276 277 276 276 275 274 272 266 260 255 260 264 268 286 291 283 288 286 277 295 283 281 293 294 295 302 303 299 301 308 312 318
273 272 273 272 273 271 273 273 273 273 274 271 270 267 261 254 258 260 264 273 276 274 276 282 295 310 299 276 287 292 298 307 316 319 311 296 290 306
275 275 274 275 272 270 268 267 267 269 269 266 264 260 257 256 255 256 261 267 274 280 288 295 307 306 282 270 280 289 296 307 315 321 318 321 315 301
Height
1515 1515 1515 1514 1514 1513 1512 1511 1511 1507 1504 1503 1503 1501 1500 1497 1495 1492 1489 1486 1484 1481 1478 1475 1472 1469 1466 1463 1460 1458 1455 1452 1449 1447 1444 1442 1440 1438
1511 1511 1511 1511 1510 1509 1508 1507 1505 1503 1500 1498 1497 1496 1494 1492 1490 1486 1483 1481 1478 1475 1472 1469 1466 1463 1460 1457 1454 1451 1449 1446 1443 1440 1437 1435 1432 1430
1507 1507 1507 1506 1506 1505 1503 1502 1501 1498 1494 1492 1491 1490 1488 1486 1483 1480 1477 1474 1471 1468 1465 1462 1459 1456 1453 1450 1447 1445 1442 1439 1435 1433 1430 1427 1424 1422
1502 1502 1502 1502 1501 1500 1498 1497 1495 1493 1490 1485 1484 1483 1481 1479 1476 1473 1470 1467 1464 1461 1458 1455 1453 1450 1447 1444 1441 1437 1434 1431 1428 1425 1422 1419 1417 1414
1498 1498 1497 1497 1496 1494 1493 1491 1489 1487 1484 1481 1477 1476 1474 1472 1469 1466 1463 1460 1458 1455 1452 1449 1446 1443 1440 1437 1433 1430 1427 1423 1420 1417 1414 1411 1409 1406
1493 1493 1492 1491 1490 1489 1487 1485 1483 1481 1478 1475 1471 1469 1467 1465 1462 1459 1455 1453 1450 1448 1445 1442 1439 1436 1433 1429 1426 1422 1418 1415 1412 1409 1406 1404 1401 1398
1488 1488 1487 1486 1485 1483 1481 1479 1477 1474 1472 1469 1465 1462 1460 1458 1456 1452 1448 1444 1442 1440 1436 1434 1431 1428 1425 1421 1418 1414 1410 1407 1404 1402 1399 1396 1393 1390
1483 1483 1482 1481 1479 1477 1476 1473 1472 1469 1465 1462 1459 1456 1453 1452 1449 1446 1442 1437 1433 1432 1429 1425 1424 1420 1417 1414 1410 1407 1403 1400 1397 1394 1391 1389 1386 1383
1477 1477 1476 1475 1473 1471 1469 1467 1465 1463 1460 1457 1453 1450 1448 1445 1442 1438 1435 1432 1428 1426 1423 1417 1416 1412 1410 1406 1403 1400 1396 1393 1390 1388 1385 1382 1379 1376
1472 1471 1469 1468 1466 1464 1461 1459 1457 1455 1453 1450 1447 1444 1441 1439 1436 1433 1429 1425 1421 1420 1417 1411 1408 1405 1402 1399 1396 1393 1390 1387 1384 1381 1378 1375 1372 1369
1465 1464 1463 1461 1460 1457 1454 1451 1448 1447 1445 1443 1440 1437 1435 1432 1430 1427 1422 1419 1414 1412 1411 1406 1401 1397 1393 1391 1389 1387 1384 1381 1378 1375 1372 1369 1366 1363
1459 1458 1456 1454 1452 1450 1448 1444 1441 1439 1437 1434 1432 1429 1427 1425 1423 1420 1417 1413 1409 1405 1403 1401 1396 1393 1386 1383 1383 1381 1378 1375 1373 1369 1366 1363 1360 1358
1452 1450 1449 1448 1445 1443 1441 1438 1435 1432 1429 1426 1423 1421 1419 1417 1415 1413 1410 1407 1404 1400 1399 1396 1392 1389 1386 1380 1376 1375 1373 1370 1366 1363 1361 1358 1356 1353
1445 1443 1442 1440 1438 1436 1434 1431 1429 1426 1422 1419 1416 1413 1411 1409 1407 1405 1403 1401 1398 1396 1393 1391 1388 1385 1381 1377 1373 1370 1368 1365 1362 1359 1357 1354 1352 1350
1438 1437 1435 1433 1430 1428 1426 1424 1421 1418 1415 1412 1409 1407 1405 1402 1400 1398 1396 1394 1392 1390 1388 1386 1383 1380 1378 1374 1370 1366 1363 1361 1359 1356 1353 1351 1348 1346
1432 1430 1428 1425 1423 1421 1419 1416 1414 1411 1408 1405 1402 1400 1398 1396 1394 1392 1390 1388 1385 1384 1383 1381 1378 1376 1373 1370 1367 1363 1361 1358 1356 1353 1350 1348 1345 1343
1424 1422 1420 1418 1416 1414 1411 1409 1407 1404 1402 1399 1397 1394 1392 1390 1388 1387 1385 1383 1381 1378 1377 1376 1374 1372 1369 1367 1363 1361 1358 1356 1353 1351 1347 1344 1343 1340
1418 1415 1413 1411 1409 1407 1404 1402 1400 1398 1396 1393 1391 1389 1387 1385 1384 1382 1380 1378 1376 1374 1373 1371 1369 1367 1365 1363 1362 1358 1356 1354 1351 1348 1346 1343 1340 1338
1411 1408 1407 1405 1402 1400 1398 1396 1394 1392 1390 1388 1386 1384 1382 1380 1379 1377 1376 1374 1372 1371 1369 1368 1366 1364 1362 1360 1358 1357 1354 1351 1349 1346 1344 1341 1338 1336
1404 1402 1400 1398 1396 1394 1392 1390 1388 1386 1384 1382 1381 1379 1378 1376 1375 1373 1372 1370 1369 1367 1366 1365 1364 1362 1361 1359 1356 1354 1353 1350 1347 1344 1342 1339 1337 1335
1398 1396 1394 1392 1390 1388 1386 1384 1382 1380 1379 1377 1375 1374 1373 1372 1370 1369 1368 1367 1366 1364 1363 1362 1361 1360 1358 1357 1354 1352 1350 1348 1346 1343 1340 1338 1335 1333
1392 1390 1388 1386 1384 1382 1380 1378 1376 1375 1373 1372 1370 1369 1368 1367 1366 1365 1364 1363 1362 1361 1360 1360 1359 1357 1356 1354 1352 1350 1347 1346 1344 1342 1340 1338 1336 1332
1386 1384 1382 1380 1378 1376 1374 1372 1371 1369 1368 1366 1365 1365 1364 1363 1362 1361 1361 1360 1359 1358 1357 1357 1356 1355 1353 1352 1350 1348 1346 1344 1342 1340 1339 1337 1335 1333